Regional Weather Roundup
Issued by NWS

Home | Current Version | Previous Version | Text Only | Print | Product List | Glossary Off
Versions: 1 2 3 4 5 6 7 8 9 10 11 12 13 14 15 16 17 18 19 20 21 22 23 24 25 26 27 28 29 30 31 32 33 34 35 36 37 38 39 40 41 42 43 44 45 46 47 48 49 50

000
ASUS43 KLOT 282000
RWRIL

ILLINOIS REGIONAL WEATHER ROUNDUP
NATIONAL WEATHER SERVICE CHICAGO/ROMEOVILLE IL
300 PM CDT FRI AUG 28 2015

NOTE: "FAIR" INDICATES FEW OR NO CLOUDS BELOW 12,000 FEET WITH NO
SIGNIFICANT WEATHER AND/OR OBSTRUCTIONS TO VISIBILITY.

* THESE STATIONS ARE NOT UNDER NWS QUALITY CONTROL. THEY ALSO MAY NOT
  REPORT WEATHER SUCH AS PRECIPITATION OR FOG.

ILZ001-002-007-009-015-016-024-282100-
NORTHWEST ILLINOIS

CITY           SKY/WX    TMP DP  RH WIND       PRES   REMARKS
MOLINE         CLOUDY    71  63  75 SE7       30.05F
STERLING*      CLOUDY   N/A N/A N/A SE6       30.05F
$$

ILZ003-004-008-010-011-017-018-282100-
NORTH CENTRAL ILLINOIS

CITY           SKY/WX    TMP DP  RH WIND       PRES   REMARKS
ROCKFORD       CLOUDY    70  61  73 SE6       30.10F
FREEPORT*      LGT RAIN  67  63  86 E5        30.10F
$$

ILZ005-006-012>014-019>023-282100-
NORTHEAST ILLINOIS

CITY           SKY/WX    TMP DP  RH WIND       PRES   REMARKS
CHICAGO-OHARE  CLOUDY    72  59  63 SW5       30.11F
CHICAGO-MIDWAY CLOUDY    74  59  59 S6        30.11F
AURORA         CLOUDY    72  62  71 SE6       30.12F
LANSING*       CLOUDY    73  61  65 S5        30.12F
WAUKEGAN       CLOUDY    70  60  70 CALM      30.10F
DUPAGE AIRPORT CLOUDY    71  61  70 S6        30.11F
WHEELING       CLOUDY    72  58  61 SW5       30.12F
NORTHERLY ISL    N/A     73  57  57 S8          N/A
$$

LMZ740>746-282100-
SOUTHERN LAKE MICHIGAN

STATION/POSITION SKY/WX   TEMP    WIND        PRES    VSBY  WAVE
                          AIR SEA DIR/SP/G                  HT/PER
                          (F)     (DEG/KT/KT) (MB)    (MI)  (FT/S)
SOUTHERN BUOY              68 69  170/  8/ 10 1019.8F         1/ 4
WILMETTE HARBOR            65 58  330/  2/  4   N/A           1
HARRISON CRIB              71     210/  1/  3   N/A
BURNHAM HARBOR             73     230/  5/ 10   N/A
BURNS HARBOR               74     260/  5/  7 1020.7F
MICHIGAN CITY              73     230/  5/  6   N/A
MICHIGAN CITY 6N           73 71  280/  2/  2   N/A           0
ST. JOSEPH                 71 72  360/  4/  4   N/A           1
$$

ILZ025>027-034>036-040-047-049-050-058-095>099-282100-
WEST-CENTRAL ILLINOIS

CITY           SKY/WX    TMP DP  RH WIND       PRES   REMARKS
QUINCY         CLOUDY    72  62  71 S7        30.03F
MACOMB*        CLOUDY    73  63  71 SE8       30.07F
$$

ILZ028>032-037-038-041>044-048-051>054-059>061-282100-
CENTRAL ILLINOIS

CITY           SKY/WX    TMP DP  RH WIND       PRES   REMARKS
DECATUR        PTSUNNY   80  58  46 SE13      30.09F HX  80
PEORIA         CLOUDY    77  60  55 SE6       30.07F
SPRINGFIELD    CLOUDY    80  60  50 S12G18    30.07F HX  81
TAYLORVILLE    NOT AVBL
$$

ILZ033-039-045-046-055>057-062-063-282100-
EAST-CENTRAL ILLINOIS

CITY           SKY/WX    TMP DP  RH WIND       PRES   REMARKS
CHAMPAIGN      PTSUNNY   79  58  48 VRB7      30.11F HX  80
MATTOON        MOSUNNY   78  56  46 SE9       30.10F
$$

ILZ079-100>102-282100-
SOUTHWEST ILLINOIS

CITY           SKY/WX    TMP DP  RH WIND       PRES   REMARKS
ALTON          CLOUDY    79  61  53 S8        30.07F HX  80
BELLEVILLE     PTSUNNY   79  63  57 E9        30.06F HX  81
CAHOKIA*       PTSUNNY   82  61  48 SE9       30.06F HX  83
SPARTA*        MOSUNNY   80  63  56 SE5       30.08F HX  81
$$

ILZ064>066-069>071-074>076-080>082-084>086-088>090-092>094-282100-
SOUTH-CENTRAL ILLINOIS

CITY           SKY/WX    TMP DP  RH WIND       PRES   REMARKS
CARBONDALE     MOSUNNY   80  59  48 S8        30.07F HX  81
MARION         PTSUNNY   81  61  50 SE8       30.08F HX  81
MT. VERNON     MOSUNNY   82  57  42 SE8       30.10F HX  82
$$

ILZ067-068-072-073-078-083-087-091-282100-
SOUTHEAST ILLINOIS

CITY           SKY/WX    TMP DP  RH WIND       PRES   REMARKS
LAWRENCEVILLE  SUNNY     81  57  43 E8        30.11F HX  81
FLORA*         SUNNY     81  56  42 SE10      30.10F HX  81
ROBINSON*      SUNNY     82  58  43 E8        30.11F HX  81
$$

ABBREVIATIONS USED IN REMARKS
   TC - TEMPERATURE IN CELSIUS
  WCI - WIND CHILL INDEX
   HX - HEAT INDEX
  VSB - VISIBILITY
$$




USA.gov is the U.S. government's official web portal to all federal, state and local government web resources and services.